Weather Roundup
Issued by NWS Chicago, IL

Home | Current Version | Previous Version | Graphics & Text | Print | Product List | Glossary On
Versions: 1 2 3 4 5 6 7 8 9 10 11 12 13 14 15 16 17 18 19 20 21 22 23 24 25 26 27 28 29 30 31 32 33 34 35 36 37 38 39 40 41 42 43 44 45 46 47 48 49 50
000
NZUS59 KLOT 300410
HRRLOT

CHICAGO AREA WEATHER ROUNDUP
NATIONAL WEATHER SERVICE CHICAGO/ROMEOVILLE IL
1100 PM CDT TUE JUL 29 2014

NOTE: "FAIR" INDICATES FEW OR NO CLOUDS BELOW 12,000 FEET WITH NO
SIGNIFICANT WEATHER AND/OR OBSTRUCTIONS TO VISIBILITY.

* THESE STATIONS ARE NOT UNDER NWS QUALITY CONTROL. THEY ALSO MAY NOT
  REPORT WEATHER SUCH AS PRECIPITATION OR FOG.

ILZ005-006-012>014-019>023-300500-
NORTHEAST ILLINOIS

CITY           SKY/WX    TMP DP  RH WIND       PRES   REMARKS
OHARE          CLOUDY    63  56  78 N10       30.02F
MIDWAY         CLOUDY    69  55  60 N15G25    30.03R
AURORA         PTCLDY    64  58  80 NW6       30.04R
LANSING*       CLEAR     59  55  89 CALM      30.01S
JOLIET*        PTCLDY    66  58  73 W5        30.03R
WAUKEGAN       MOCLDY    60  57  89 VRB3      30.01F
DUPAGE AIRPORT PTCLDY    62  56  80 N7        30.03R
WHEELING       CLOUDY    63  59  87 N6        30.03F
KANKAKEE*      PTCLDY    61  58  91 W3        30.03S
MORRIS*        MOCLDY    65  61  87 W5        30.02F
LEWIS AIRPORT* MOCLDY    64  60  90 N9        30.04R
NORTHERLY IS     N/A     65  56  72 NW18        N/A
$$

WIZ051-052-058>065-066-070>072-300500-
SOUTHEAST WISCONSIN

CITY           SKY/WX    TMP DP  RH WIND       PRES   REMARKS
MILWAUKEE      MOCLDY    61  58  90 W3        30.00F
KENOSHA*       PTCLDY    58  57  97 SW6       30.02F
RACINE*        MOCLDY    60  58  92 W7        30.02F
BURLINGTON     PTCLDY    55  54  98 SW6       30.02F
WAUKESHA       PTCLDY    55  54  94 SW3       30.02S
WEST BEND      PTCLDY    55  54  94 CALM      30.01R
$$

INZ001>003-010>013-019-020-300500-
NORTHWEST INDIANA

CITY           SKY/WX    TMP DP  RH WIND       PRES   REMARKS
GARY*          CLEAR     66  59  77 SW3       30.01F
MICHIGAN CITY* NOT AVBL
RENSSELAER*    NOT AVBL
VALPARAISO     MOCLDY    60  57  89 W6        30.02S
$$

LMZ740>746-300500-
SOUTHERN LAKE MICHIGAN

STATION/POSITION TIME  SKY/WX   TEMP WIND        PRES    VSBY
                                AIR  DIR/SP/G
                 (UTC)          (F)  (DEG/KT/KT) (MB)    (MI)
HARRISON CRIB    0400            65  340/ 26/ 30   N/A
BURNHAM HARBOR   0400            64  340/ 14/ 23   N/A
CALUMET HARBOR   0400            68  300/  6/ 11 1015.8R
BURNS HARBOR     NOT AVBL
MICHIGAN CITY    0400            66  180/  7/  9   N/A
$$

ABBREVIATIONS USED IN REMARKS
   TC - TEMPERATURE IN CELSIUS
  WCI - WIND CHILL INDEX
   HX - HEAT INDEX
  VSB - VISIBILITY
$$



USA.gov is the U.S. government's official web portal to all federal, state and local government web resources and services.